Saint Bonnet de Bellac- Haute Vienne - France
Donnes mto: mardi, 05/06/2012
Date Horaire Temp. E. Hum. E. P.atmo. Pluie Vent Direction Direction Ensoleilleme Solaire P. de rose Temp au vent Rafales
05/06/2012 00:00 13,1 C 83 % 1018,7 hPa 0,0 mm 0,0 km/h (0 Bft) O 270 0 min 0 W/m 10,3 C 13,1 C 0,0 km/h (0 Bft)
05/06/2012 00:10 13,0 C 83 % 1018,7 hPa 0,0 mm 0,0 km/h (0 Bft) S-SO 202 0 min 0 W/m 10,2 C 13,0 C 0,0 km/h (0 Bft)
05/06/2012 00:20 13,1 C 84 % 1018,7 hPa 0,0 mm 0,4 km/h (0 Bft) S-SO 202 0 min 0 W/m 10,5 C 13,1 C 0,4 km/h (0 Bft)
05/06/2012 00:30 13,2 C 84 % 1018,6 hPa 0,0 mm 1,1 km/h (1 Bft) S-SO 202 0 min 0 W/m 10,6 C 13,2 C 3,6 km/h (1 Bft)
05/06/2012 00:40 13,3 C 84 % 1018,6 hPa 0,0 mm 0,0 km/h (0 Bft) SO 225 0 min 0 W/m 10,7 C 13,3 C 0,0 km/h (0 Bft)
05/06/2012 00:50 13,2 C 84 % 1018,6 hPa 0,0 mm 1,1 km/h (1 Bft) S-SO 202 0 min 0 W/m 10,6 C 13,2 C 4,0 km/h (1 Bft)
05/06/2012 01:00 13,1 C 83 % 1018,6 hPa 0,0 mm 2,9 km/h (1 Bft) SO 225 0 min 0 W/m 10,3 C 13,1 C 4,3 km/h (1 Bft)
05/06/2012 01:10 12,9 C 84 % 1018,7 hPa 0,0 mm 3,6 km/h (1 Bft) S-SO 202 0 min 0 W/m 10,3 C 12,9 C 6,5 km/h (2 Bft)
05/06/2012 01:20 12,8 C 84 % 1018,6 hPa 0,0 mm 2,9 km/h (1 Bft) O-SO 247 0 min 0 W/m 10,2 C 12,8 C 4,0 km/h (1 Bft)
05/06/2012 01:30 12,5 C 85 % 1018,5 hPa 0,0 mm 0,0 km/h (0 Bft) SO 225 0 min 0 W/m 10,0 C 12,5 C 0,0 km/h (0 Bft)
05/06/2012 01:40 12,2 C 85 % 1018,5 hPa 0,0 mm 0,0 km/h (0 Bft) SO 225 0 min 0 W/m 9,8 C 12,2 C 0,0 km/h (0 Bft)
05/06/2012 01:50 11,9 C 85 % 1018,6 hPa 0,0 mm 0,0 km/h (0 Bft) O 270 0 min 0 W/m 9,5 C 11,9 C 0,0 km/h (0 Bft)
05/06/2012 02:00 11,8 C 86 % 1018,5 hPa 0,0 mm 0,7 km/h (0 Bft) SO 225 0 min 0 W/m 9,5 C 11,8 C 0,7 km/h (0 Bft)
05/06/2012 02:10 11,6 C 86 % 1018,4 hPa 0,0 mm 0,7 km/h (0 Bft) O-SO 247 0 min 0 W/m 9,3 C 11,6 C 4,3 km/h (1 Bft)
05/06/2012 02:20 11,5 C 86 % 1018,3 hPa 0,0 mm 0,0 km/h (0 Bft) O-SO 247 0 min 0 W/m 9,2 C 11,5 C 0,0 km/h (0 Bft)
05/06/2012 02:30 11,4 C 86 % 1018,3 hPa 0,0 mm 0,0 km/h (0 Bft) O-SO 247 0 min 0 W/m 9,1 C 11,4 C 0,0 km/h (0 Bft)
05/06/2012 02:40 11,1 C 86 % 1018,3 hPa 0,0 mm 0,0 km/h (0 Bft) O-SO 247 0 min 0 W/m 8,8 C 11,1 C 0,0 km/h (0 Bft)
05/06/2012 02:50 10,9 C 86 % 1018,2 hPa 0,0 mm 0,0 km/h (0 Bft) O-SO 247 0 min 0 W/m 8,7 C 10,9 C 0,0 km/h (0 Bft)
05/06/2012 03:02 10,8 C 87 % 1018,2 hPa 0,0 mm 0,0 km/h (0 Bft) O-SO 247 0 min 0 W/m 8,7 C 10,8 C 0,0 km/h (0 Bft)
05/06/2012 03:10 10,6 C 87 % 1017,8 hPa 0,0 mm 0,0 km/h (0 Bft) O-SO 247 0 min 0 W/m 8,5 C 10,6 C 0,0 km/h (0 Bft)
05/06/2012 03:20 10,4 C 87 % 1017,8 hPa 0,0 mm 0,0 km/h (0 Bft) O-SO 247 0 min 0 W/m 8,3 C 10,4 C 0,0 km/h (0 Bft)
05/06/2012 03:30 10,2 C 87 % 1017,6 hPa 0,0 mm 0,0 km/h (0 Bft) O-SO 247 0 min 0 W/m 8,1 C 10,2 C 0,0 km/h (0 Bft)
05/06/2012 03:40 10,0 C 87 % 1017,6 hPa 0,0 mm 0,0 km/h (0 Bft) O-SO 247 0 min 0 W/m 7,9 C 10,0 C 0,0 km/h (0 Bft)
05/06/2012 03:50 9,9 C 88 % 1017,5 hPa 0,0 mm 0,0 km/h (0 Bft) O-SO 247 0 min 0 W/m 8,0 C 9,9 C 0,0 km/h (0 Bft)
05/06/2012 04:00 9,8 C 88 % 1017,5 hPa 0,0 mm 0,0 km/h (0 Bft) O-SO 247 0 min 0 W/m 7,9 C 9,8 C 0,0 km/h (0 Bft)
05/06/2012 04:10 9,9 C 89 % 1017,7 hPa 0,0 mm 0,0 km/h (0 Bft) O-SO 247 0 min 0 W/m 8,2 C 9,9 C 0,0 km/h (0 Bft)
05/06/2012 04:20 10,0 C 89 % 1017,6 hPa 0,0 mm 0,0 km/h (0 Bft) O-SO 247 0 min 0 W/m 8,3 C 10,0 C 0,0 km/h (0 Bft)
05/06/2012 04:30 10,1 C 90 % 1017,4 hPa 0,0 mm 0,0 km/h (0 Bft) O-SO 247 0 min 0 W/m 8,5 C 10,1 C 0,0 km/h (0 Bft)
05/06/2012 04:40 10,3 C 90 % 1017,1 hPa 0,0 mm 0,0 km/h (0 Bft) S-SO 202 0 min 0 W/m 8,7 C 10,3 C 0,0 km/h (0 Bft)
05/06/2012 04:50 10,3 C 90 % 1017,1 hPa 0,0 mm 0,0 km/h (0 Bft) S-SO 202 0 min 0 W/m 8,7 C 10,3 C 0,0 km/h (0 Bft)
05/06/2012 05:00 10,3 C 90 % 1017,1 hPa 0,0 mm 0,0 km/h (0 Bft) S-SO 202 0 min 0 W/m 8,7 C 10,3 C 0,0 km/h (0 Bft)
05/06/2012 05:10 10,1 C 90 % 1017,1 hPa 0,0 mm 0,0 km/h (0 Bft) S-SO 202 0 min 0 W/m 8,5 C 10,1 C 0,0 km/h (0 Bft)
05/06/2012 05:20 9,9 C 90 % 1017,1 hPa 0,0 mm 0,0 km/h (0 Bft) S-SO 202 0 min 0 W/m 8,3 C 9,9 C 0,0 km/h (0 Bft)
05/06/2012 05:30 9,8 C 90 % 1016,9 hPa 0,0 mm 0,0 km/h (0 Bft) S-SO 202 0 min 0 W/m 8,2 C 9,8 C 0,0 km/h (0 Bft)
05/06/2012 05:40 9,6 C 90 % 1016,9 hPa 0,0 mm 0,0 km/h (0 Bft) S-SO 202 0 min 0 W/m 8,0 C 9,6 C 0,0 km/h (0 Bft)
05/06/2012 05:50 9,5 C 90 % 1016,9 hPa 0,0 mm 0,0 km/h (0 Bft) S-SO 202 0 min 0 W/m 7,9 C 9,5 C 0,0 km/h (0 Bft)
05/06/2012 06:00 9,4 C 90 % 1017,0 hPa 0,0 mm 0,0 km/h (0 Bft) S-SO 202 0 min 0 W/m 7,8 C 9,4 C 0,0 km/h (0 Bft)
05/06/2012 06:10 9,3 C 90 % 1017,0 hPa 0,0 mm 0,0 km/h (0 Bft) S-SE 157 0 min 0 W/m 7,7 C 9,3 C 0,0 km/h (0 Bft)
05/06/2012 06:20 9,4 C 90 % 1017,0 hPa 0,0 mm 0,0 km/h (0 Bft) S-SE 157 0 min 0 W/m 7,8 C 9,4 C 0,0 km/h (0 Bft)
05/06/2012 06:30 9,4 C 90 % 1017,1 hPa 0,0 mm 0,0 km/h (0 Bft) S-SE 157 0 min 0 W/m 7,8 C 9,4 C 0,0 km/h (0 Bft)
05/06/2012 06:40 9,5 C 90 % 1017,1 hPa 0,0 mm 0,0 km/h (0 Bft) S-SE 157 0 min 0 W/m 7,9 C 9,5 C 0,0 km/h (0 Bft)
05/06/2012 06:50 9,6 C 91 % 1017,1 hPa 0,0 mm 0,0 km/h (0 Bft) N 360 0 min 0 W/m 8,2 C 9,6 C 0,0 km/h (0 Bft)
05/06/2012 07:00 9,8 C 91 % 1017,1 hPa 0,0 mm 0,0 km/h (0 Bft) S-SE 157 0 min 0 W/m 8,4 C 9,8 C 0,0 km/h (0 Bft)
05/06/2012 07:10 10,1 C 91 % 1017,1 hPa 0,0 mm 0,0 km/h (0 Bft) S-SE 157 0 min 0 W/m 8,7 C 10,1 C 0,0 km/h (0 Bft)
05/06/2012 07:20 10,3 C 92 % 1017,1 hPa 0,0 mm 0,0 km/h (0 Bft) S-SE 157 0 min 0 W/m 9,1 C 10,3 C 0,0 km/h (0 Bft)
05/06/2012 07:30 10,4 C 92 % 1017,1 hPa 0,0 mm 0,0 km/h (0 Bft) S-SE 157 0 min 0 W/m 9,2 C 10,4 C 0,0 km/h (0 Bft)
05/06/2012 07:40 10,9 C 92 % 1017,2 hPa 0,0 mm 1,1 km/h (1 Bft) S-SE 157 0 min 0 W/m 9,7 C 10,9 C 1,1 km/h (1 Bft)
05/06/2012 07:50 11,5 C 92 % 1017,2 hPa 0,0 mm 0,0 km/h (0 Bft) S-SE 157 0 min 0 W/m 10,2 C 11,5 C 0,0 km/h (0 Bft)
05/06/2012 08:00 11,9 C 92 % 1017,3 hPa 0,0 mm 0,0 km/h (0 Bft) S-SE 157 0 min 0 W/m 10,6 C 11,9 C 0,0 km/h (0 Bft)
05/06/2012 08:10 12,2 C 92 % 1017,2 hPa 0,0 mm 0,0 km/h (0 Bft) S-SE 157 0 min 0 W/m 10,9 C 12,2 C 0,0 km/h (0 Bft)
05/06/2012 08:20 12,4 C 92 % 1017,2 hPa 0,0 mm 0,0 km/h (0 Bft) S-SE 157 0 min 0 W/m 11,1 C 12,4 C 0,0 km/h (0 Bft)
05/06/2012 08:30 12,6 C 92 % 1017,0 hPa 0,0 mm 0,0 km/h (0 Bft) SE 135 0 min 0 W/m 11,3 C 12,6 C 0,0 km/h (0 Bft)
05/06/2012 08:40 13,2 C 92 % 1017,1 hPa 0,0 mm 0,0 km/h (0 Bft) E-SE 112 0 min 0 W/m 11,9 C 13,2 C 0,0 km/h (0 Bft)
05/06/2012 08:50 13,8 C 91 % 1017,0 hPa 0,0 mm 0,7 km/h (0 Bft) S 180 0 min 0 W/m 12,4 C 13,8 C 3,2 km/h (1 Bft)
05/06/2012 09:00 14,4 C 90 % 1017,0 hPa 0,0 mm 0,0 km/h (0 Bft) S 180 0 min 0 W/m 12,8 C 14,4 C 0,0 km/h (0 Bft)
05/06/2012 09:10 14,9 C 88 % 1017,1 hPa 0,0 mm 1,4 km/h (1 Bft) SE 135 0 min 0 W/m 12,9 C 14,9 C 4,0 km/h (1 Bft)
05/06/2012 09:20 15,4 C 85 % 1017,1 hPa 0,0 mm 0,0 km/h (0 Bft) SE 135 0 min 0 W/m 12,9 C 15,4 C 0,0 km/h (0 Bft)
05/06/2012 09:30 15,9 C 84 % 1017,0 hPa 0,0 mm 1,4 km/h (1 Bft) S 180 0 min 0 W/m 13,2 C 15,9 C 3,6 km/h (1 Bft)
05/06/2012 09:40 16,3 C 82 % 1017,2 hPa 0,0 mm 2,2 km/h (1 Bft) S 180 0 min 0 W/m 13,2 C 16,3 C 4,3 km/h (1 Bft)
05/06/2012 09:50 16,6 C 81 % 1017,2 hPa 0,0 mm 1,1 km/h (1 Bft) S 180 0 min 0 W/m 13,3 C 16,6 C 3,2 km/h (1 Bft)
05/06/2012 10:00 16,8 C 77 % 1017,1 hPa 0,0 mm 4,0 km/h (1 Bft) S-SO 202 0 min 0 W/m 12,7 C 16,8 C 6,8 km/h (2 Bft)
05/06/2012 10:10 17,0 C 78 % 1017,2 hPa 0,0 mm 2,2 km/h (1 Bft) S 180 0 min 0 W/m 13,1 C 17,0 C 4,0 km/h (1 Bft)
05/06/2012 10:20 17,5 C 76 % 1017,1 hPa 0,0 mm 2,9 km/h (1 Bft) S-SE 157 0 min 0 W/m 13,2 C 17,5 C 6,1 km/h (2 Bft)
05/06/2012 10:30 17,4 C 75 % 1017,0 hPa 0,0 mm 1,8 km/h (1 Bft) SO 225 0 min 0 W/m 12,9 C 17,4 C 2,9 km/h (1 Bft)
05/06/2012 10:40 17,4 C 76 % 1016,9 hPa 0,0 mm 0,0 km/h (0 Bft) SO 225 0 min 0 W/m 13,1 C 17,4 C 0,0 km/h (0 Bft)
05/06/2012 10:50 17,8 C 74 % 1016,9 hPa 0,0 mm 3,6 km/h (1 Bft) SO 225 0 min 0 W/m 13,1 C 17,8 C 6,1 km/h (2 Bft)
05/06/2012 11:00 18,6 C 72 % 1017,0 hPa 0,0 mm 5,8 km/h (2 Bft) SO 225 0 min 0 W/m 13,4 C 18,6 C 6,5 km/h (2 Bft)
05/06/2012 11:10 18,9 C 70 % 1016,8 hPa 0,0 mm 2,5 km/h (1 Bft) SO 225 0 min 0 W/m 13,3 C 18,9 C 4,3 km/h (1 Bft)
05/06/2012 11:20 18,9 C 68 % 1016,8 hPa 0,0 mm 2,2 km/h (1 Bft) SO 225 0 min 0 W/m 12,9 C 18,9 C 6,5 km/h (2 Bft)
05/06/2012 11:30 19,1 C 68 % 1016,8 hPa 0,0 mm 6,8 km/h (2 Bft) S-SE 157 0 min 0 W/m 13,1 C 19,1 C 8,6 km/h (2 Bft)
05/06/2012 11:40 19,3 C 67 % 1016,8 hPa 0,0 mm 1,1 km/h (1 Bft) S-SE 157 0 min 0 W/m 13,0 C 19,3 C 4,0 km/h (1 Bft)
05/06/2012 11:50 19,8 C 68 % 1016,8 hPa 0,0 mm 5,4 km/h (2 Bft) S 180 0 min 0 W/m 13,7 C 19,8 C 7,6 km/h (2 Bft)
05/06/2012 12:00 20,2 C 64 % 1016,7 hPa 0,0 mm 1,8 km/h (1 Bft) S-SO 202 0 min 0 W/m 13,2 C 20,2 C 3,2 km/h (1 Bft)
05/06/2012 12:10 20,4 C 62 % 1016,7 hPa 0,0 mm 1,4 km/h (1 Bft) S-SO 202 0 min 0 W/m 12,9 C 20,4 C 4,3 km/h (1 Bft)
05/06/2012 12:20 20,7 C 62 % 1016,7 hPa 0,0 mm 3,2 km/h (1 Bft) S-SO 202 0 min 0 W/m 13,2 C 20,7 C 6,1 km/h (2 Bft)
05/06/2012 12:30 20,8 C 59 % 1016,6 hPa 0,0 mm 6,1 km/h (2 Bft) S-SE 157 0 min 0 W/m 12,5 C 20,8 C 6,8 km/h (2 Bft)
05/06/2012 12:40 20,8 C 61 % 1016,6 hPa 0,0 mm 0,0 km/h (0 Bft) O-SO 247 0 min 0 W/m 13,0 C 20,8 C 0,0 km/h (0 Bft)
05/06/2012 12:50 21,1 C 61 % 1016,5 hPa 0,0 mm 4,3 km/h (1 Bft) S 180 0 min 0 W/m 13,3 C 21,1 C 4,3 km/h (1 Bft)
05/06/2012 13:00 21,2 C 59 % 1016,4 hPa 0,0 mm 0,7 km/h (0 Bft) SO 225 0 min 0 W/m 12,9 C 21,2 C 3,6 km/h (1 Bft)
05/06/2012 13:10 21,2 C 60 % 1016,2 hPa 0,0 mm 7,9 km/h (2 Bft) S-SE 157 0 min 0 W/m 13,1 C 21,2 C 10,8 km/h (2 Bft)
05/06/2012 13:20 21,4 C 58 % 1016,1 hPa 0,0 mm 0,0 km/h (0 Bft) SE 135 0 min 0 W/m 12,8 C 21,4 C 0,0 km/h (0 Bft)
05/06/2012 13:30 21,5 C 58 % 1016,2 hPa 0,0 mm 3,2 km/h (1 Bft) S-SO 202 0 min 0 W/m 12,9 C 21,5 C 4,3 km/h (1 Bft)
05/06/2012 13:40 21,6 C 57 % 1016,0 hPa 0,0 mm 1,1 km/h (1 Bft) SE 135 0 min 0 W/m 12,7 C 21,6 C 4,3 km/h (1 Bft)
05/06/2012 13:50 21,9 C 55 % 1015,9 hPa 0,0 mm 2,2 km/h (1 Bft) S 180 0 min 0 W/m 12,4 C 21,9 C 4,0 km/h (1 Bft)
05/06/2012 14:00 22,1 C 56 % 1015,8 hPa 0,0 mm 2,9 km/h (1 Bft) E-NE 67 0 min 0 W/m 12,9 C 22,1 C 6,5 km/h (2 Bft)
05/06/2012 14:10 22,4 C 55 % 1015,8 hPa 0,0 mm 5,0 km/h (1 Bft) S-SE 157 0 min 0 W/m 12,9 C 22,4 C 7,2 km/h (2 Bft)
05/06/2012 14:20 22,6 C 55 % 1015,7 hPa 0,0 mm 0,0 km/h (0 Bft) S-SE 157 0 min 0 W/m 13,1 C 22,6 C 0,0 km/h (0 Bft)
05/06/2012 14:30 22,9 C 55 % 1015,7 hPa 0,0 mm 4,0 km/h (1 Bft) S-SO 202 0 min 0 W/m 13,4 C 22,9 C 6,8 km/h (2 Bft)
05/06/2012 14:40 22,8 C 54 % 1015,3 hPa 0,0 mm 0,4 km/h (0 Bft) E 90 0 min 0 W/m 13,0 C 22,8 C 0,4 km/h (0 Bft)
05/06/2012 14:50 22,9 C 54 % 1015,3 hPa 0,0 mm 1,8 km/h (1 Bft) O-NO 292 0 min 0 W/m 13,1 C 22,9 C 3,2 km/h (1 Bft)
05/06/2012 15:00 22,9 C 56 % 1015,1 hPa 0,0 mm 0,0 km/h (0 Bft) O-SO 247 0 min 0 W/m 13,6 C 22,9 C 0,0 km/h (0 Bft)
05/06/2012 15:10 22,9 C 55 % 1014,9 hPa 0,0 mm 3,2 km/h (1 Bft) S 180 0 min 0 W/m 13,4 C 22,9 C 4,3 km/h (1 Bft)
05/06/2012 15:20 22,8 C 55 % 1014,8 hPa 0,0 mm 0,4 km/h (0 Bft) O-SO 247 0 min 0 W/m 13,3 C 22,8 C 2,9 km/h (1 Bft)
05/06/2012 15:30 22,9 C 54 % 1014,7 hPa 0,0 mm 0,0 km/h (0 Bft) S-SE 157 0 min 0 W/m 13,1 C 22,9 C 0,0 km/h (0 Bft)
05/06/2012 15:40 22,9 C 55 % 1014,5 hPa 0,0 mm 0,0 km/h (0 Bft) S 180 0 min 0 W/m 13,4 C 22,9 C 0,0 km/h (0 Bft)
05/06/2012 15:50 23,1 C 54 % 1014,5 hPa 0,0 mm 2,9 km/h (1 Bft) O-SO 247 0 min 0 W/m 13,3 C 23,1 C 6,1 km/h (2 Bft)
05/06/2012 16:00 22,8 C 54 % 1014,4 hPa 0,0 mm 1,4 km/h (1 Bft) O 270 0 min 0 W/m 13,0 C 22,8 C 1,4 km/h (1 Bft)
05/06/2012 16:10 22,8 C 55 % 1014,4 hPa 0,0 mm 5,0 km/h (1 Bft) S 180 0 min 0 W/m 13,3 C 22,8 C 8,6 km/h (2 Bft)
05/06/2012 16:20 22,8 C 55 % 1014,3 hPa 0,0 mm 1,8 km/h (1 Bft) O-SO 247 0 min 0 W/m 13,3 C 22,8 C 1,8 km/h (1 Bft)
05/06/2012 16:30 22,5 C 54 % 1014,0 hPa 0,0 mm 0,4 km/h (0 Bft) O-SO 247 0 min 0 W/m 12,7 C 22,5 C 0,4 km/h (0 Bft)
05/06/2012 16:40 22,4 C 56 % 1014,0 hPa 0,0 mm 0,0 km/h (0 Bft) SO 225 0 min 0 W/m 13,2 C 22,4 C 0,0 km/h (0 Bft)
05/06/2012 16:50 22,8 C 56 % 1013,9 hPa 0,0 mm 4,3 km/h (1 Bft) S 180 0 min 0 W/m 13,6 C 22,8 C 8,3 km/h (2 Bft)
05/06/2012 17:00 22,8 C 56 % 1013,7 hPa 0,0 mm 0,0 km/h (0 Bft) O-SO 247 0 min 0 W/m 13,6 C 22,8 C 0,0 km/h (0 Bft)
05/06/2012 17:10 23,1 C 53 % 1013,8 hPa 0,0 mm 9,4 km/h (2 Bft) SO 225 0 min 0 W/m 13,0 C 23,1 C 11,9 km/h (2 Bft)
05/06/2012 17:20 22,9 C 54 % 1013,8 hPa 0,0 mm 7,6 km/h (2 Bft) S-SO 202 0 min 0 W/m 13,1 C 22,9 C 7,9 km/h (2 Bft)
05/06/2012 17:30 22,8 C 53 % 1013,6 hPa 0,0 mm 0,4 km/h (0 Bft) O-SO 247 0 min 0 W/m 12,7 C 22,8 C 4,0 km/h (1 Bft)
05/06/2012 17:40 22,9 C 51 % 1013,7 hPa 0,0 mm 7,2 km/h (2 Bft) S-SO 202 0 min 0 W/m 12,2 C 22,9 C 7,6 km/h (2 Bft)
05/06/2012 17:50 22,6 C 51 % 1013,5 hPa 0,0 mm 4,3 km/h (1 Bft) O-SO 247 0 min 0 W/m 11,9 C 22,6 C 6,1 km/h (2 Bft)
05/06/2012 18:00 22,4 C 54 % 1013,6 hPa 0,0 mm 1,8 km/h (1 Bft) S-SO 202 0 min 0 W/m 12,6 C 22,4 C 4,0 km/h (1 Bft)
05/06/2012 18:10 22,3 C 53 % 1013,5 hPa 0,0 mm 6,8 km/h (2 Bft) S-SO 202 0 min 0 W/m 12,2 C 22,3 C 9,4 km/h (2 Bft)
05/06/2012 18:20 22,2 C 55 % 1013,5 hPa 0,0 mm 0,0 km/h (0 Bft) SO 225 0 min 0 W/m 12,7 C 22,2 C 0,0 km/h (0 Bft)
05/06/2012 18:30 22,0 C 55 % 1013,3 hPa 0,0 mm 0,0 km/h (0 Bft) O-SO 247 0 min 0 W/m 12,5 C 22,0 C 0,0 km/h (0 Bft)
05/06/2012 18:40 21,8 C 54 % 1013,2 hPa 0,0 mm 1,1 km/h (1 Bft) O 270 0 min 0 W/m 12,1 C 21,8 C 3,2 km/h (1 Bft)
05/06/2012 18:50 21,6 C 55 % 1013,1 hPa 0,0 mm 0,0 km/h (0 Bft) SO 225 0 min 0 W/m 12,2 C 21,6 C 0,0 km/h (0 Bft)
05/06/2012 19:00 21,5 C 55 % 1012,9 hPa 0,0 mm 0,0 km/h (0 Bft) O-SO 247 0 min 0 W/m 12,1 C 21,5 C 0,0 km/h (0 Bft)
05/06/2012 19:10 21,2 C 55 % 1012,8 hPa 0,0 mm 0,0 km/h (0 Bft) SO 225 0 min 0 W/m 11,8 C 21,2 C 0,0 km/h (0 Bft)
05/06/2012 19:20 20,9 C 57 % 1012,9 hPa 0,0 mm 0,0 km/h (0 Bft) S-SO 202 0 min 0 W/m 12,1 C 20,9 C 0,0 km/h (0 Bft)
05/06/2012 19:30 20,8 C 58 % 1012,7 hPa 0,0 mm 0,0 km/h (0 Bft) S-SO 202 0 min 0 W/m 12,2 C 20,8 C 0,0 km/h (0 Bft)
05/06/2012 19:40 20,8 C 59 % 1012,7 hPa 0,0 mm 0,0 km/h (0 Bft) S-SO 202 0 min 0 W/m 12,5 C 20,8 C 0,0 km/h (0 Bft)
05/06/2012 19:50 20,5 C 59 % 1012,6 hPa 0,0 mm 0,0 km/h (0 Bft) S 180 0 min 0 W/m 12,2 C 20,5 C 0,0 km/h (0 Bft)
05/06/2012 20:00 20,4 C 59 % 1012,2 hPa 0,0 mm 0,0 km/h (0 Bft) S 180 0 min 0 W/m 12,1 C 20,4 C 0,0 km/h (0 Bft)
05/06/2012 20:10 20,2 C 60 % 1012,6 hPa 0,0 mm 0,0 km/h (0 Bft) SO 225 0 min 0 W/m 12,2 C 20,2 C 0,0 km/h (0 Bft)
05/06/2012 20:20 19,9 C 61 % 1012,6 hPa 0,0 mm 0,0 km/h (0 Bft) SO 225 0 min 0 W/m 12,2 C 19,9 C 0,0 km/h (0 Bft)
05/06/2012 20:30 19,7 C 62 % 1012,7 hPa 0,0 mm 0,4 km/h (0 Bft) SO 225 0 min 0 W/m 12,2 C 19,7 C 3,2 km/h (1 Bft)
05/06/2012 20:40 19,5 C 63 % 1012,8 hPa 0,0 mm 0,0 km/h (0 Bft) SO 225 0 min 0 W/m 12,3 C 19,5 C 0,0 km/h (0 Bft)
05/06/2012 20:50 19,4 C 65 % 1013,0 hPa 0,0 mm 0,0 km/h (0 Bft) SO 225 0 min 0 W/m 12,6 C 19,4 C 0,0 km/h (0 Bft)
05/06/2012 21:00 19,2 C 65 % 1013,0 hPa 0,0 mm 0,0 km/h (0 Bft) SO 225 0 min 0 W/m 12,5 C 19,2 C 0,0 km/h (0 Bft)
05/06/2012 21:10 18,8 C 66 % 1012,6 hPa 0,0 mm 0,0 km/h (0 Bft) SO 225 0 min 0 W/m 12,3 C 18,8 C 0,0 km/h (0 Bft)
05/06/2012 21:20 18,6 C 67 % 1012,2 hPa 0,0 mm 2,5 km/h (1 Bft) SE 135 0 min 0 W/m 12,3 C 18,6 C 3,6 km/h (1 Bft)
05/06/2012 21:30 18,4 C 69 % 1012,0 hPa 0,0 mm 1,4 km/h (1 Bft) E-SE 112 0 min 0 W/m 12,6 C 18,4 C 3,6 km/h (1 Bft)
05/06/2012 21:40 18,3 C 68 % 1011,8 hPa 0,0 mm 1,4 km/h (1 Bft) S-SE 157 0 min 0 W/m 12,3 C 18,3 C 4,0 km/h (1 Bft)
05/06/2012 21:50 18,2 C 68 % 1011,9 hPa 0,0 mm 0,0 km/h (0 Bft) SE 135 0 min 0 W/m 12,2 C 18,2 C 0,0 km/h (0 Bft)
05/06/2012 22:00 18,0 C 70 % 1012,0 hPa 0,0 mm 0,0 km/h (0 Bft) SE 135 0 min 0 W/m 12,4 C 18,0 C 0,0 km/h (0 Bft)
05/06/2012 22:10 17,8 C 73 % 1012,1 hPa 0,0 mm 0,0 km/h (0 Bft) S 180 0 min 0 W/m 12,9 C 17,8 C 0,0 km/h (0 Bft)
05/06/2012 22:20 17,5 C 74 % 1012,4 hPa 0,0 mm 0,0 km/h (0 Bft) O-SO 247 0 min 0 W/m 12,8 C 17,5 C 0,0 km/h (0 Bft)
05/06/2012 22:30 17,4 C 75 % 1012,6 hPa 0,0 mm 0,0 km/h (0 Bft) SO 225 0 min 0 W/m 12,9 C 17,4 C 0,0 km/h (0 Bft)
05/06/2012 22:40 17,1 C 76 % 1012,5 hPa 0,0 mm 1,1 km/h (1 Bft) SO 225 0 min 0 W/m 12,8 C 17,1 C 3,6 km/h (1 Bft)
05/06/2012 22:50 16,9 C 76 % 1012,5 hPa 0,0 mm 1,4 km/h (1 Bft) S-SO 202 0 min 0 W/m 12,6 C 16,9 C 1,4 km/h (1 Bft)
05/06/2012 23:00 16,8 C 76 % 1012,5 hPa 0,0 mm 0,7 km/h (0 Bft) S-SO 202 0 min 0 W/m 12,5 C 16,8 C 0,7 km/h (0 Bft)
05/06/2012 23:10 16,8 C 77 % 1012,3 hPa 0,0 mm 2,5 km/h (1 Bft) SO 225 0 min 0 W/m 12,7 C 16,8 C 4,0 km/h (1 Bft)
05/06/2012 23:20 16,6 C 77 % 1012,1 hPa 0,0 mm 1,4 km/h (1 Bft) S-SO 202 0 min 0 W/m 12,5 C 16,6 C 1,4 km/h (1 Bft)
05/06/2012 23:30 16,4 C 79 % 1012,0 hPa 0,1 mm 1,4 km/h (1 Bft) S-SO 202 0 min 0 W/m 12,7 C 16,4 C 4,3 km/h (1 Bft)
05/06/2012 23:40 16,3 C 80 % 1011,8 hPa 0,0 mm 1,4 km/h (1 Bft) S-SE 157 0 min 0 W/m 12,8 C 16,3 C 7,2 km/h (2 Bft)
05/06/2012 23:50 16,1 C 81 % 1011,8 hPa 0,0 mm 0,4 km/h (0 Bft) S-SO 202 0 min 0 W/m 12,8 C 16,1 C 0,4 km/h (0 Bft)
_ Min-Heure 06:10 17:50 23:50 - 22:30 - - - - 06:10 06:10 22:30
Minimum _ 9,3 C 51 % 1011,8 hPa - 0,0 km/h (0 Bft) - - - - 7,7 C 9,3 C 0,0 km/h (0 Bft)
_ Max-Heure 17:10 08:40 01:10 23:30 17:10 - - 23:50 23:50 11:50 17:10 17:10
Maximum _ 23,1 C 92 % 1018,7 hPa 0,1 mm 9,4 km/h
SO (2 Bft)
- - 0 min 0 W/m 13,7 C 23,1 C 11,9 km/h
SO (2 Bft)
Moyenne _ 16,7 C 73 % 1015,7 hPa #0,1 mm 1,3 km/h (1 Bft) S-SO - #0 min. 0 W/m 11,5 C 16,7 C 2,2 km/h (1 Bft)
Saint Bonnet de Bellac- Haute Vienne - France